Time,TemperatureF,DewpointF,PressureIn,WindDirection,WindDirectionDegrees,WindSpeedMPH,WindSpeedGustMPH,Humidity,HourlyPrecipIn,Conditions,Clouds,dailyrainin,SolarRadiationWatts/m^2,SoftwareType,DateUTC
2013-09-12 00:43:00,59.0,50.0,-100.00,NW,316,4.0,11.0,73,0.00,,,0.01,0.000000,,2013-09-12 05:43:00,
2013-09-12 00:53:00,59.0,50.0,-100.00,NW,316,4.0,11.0,73,0.00,,,0.01,0.000000,,2013-09-12 05:53:00,
2013-09-12 01:01:00,59.0,50.0,-100.00,NW,316,4.0,11.0,73,0.00,,,0.01,0.000000,,2013-09-12 06:01:00,
2013-09-12 01:02:00,56.0,52.0,-100.00,NNW,343,1.0,9.0,85,0.00,,,0.01,0.000000,,2013-09-12 06:02:00,
2013-09-12 01:42:00,56.0,52.0,-100.00,NNW,343,1.0,9.0,85,0.00,,,0.01,0.000000,,2013-09-12 06:42:00,
2013-09-12 01:52:00,56.0,52.0,-100.00,NNW,343,1.0,9.0,85,0.00,,,0.01,0.000000,,2013-09-12 06:52:00,
2013-09-12 02:02:00,54.0,51.0,-100.00,NW,313,1.0,7.0,90,0.00,,,0.01,0.000000,,2013-09-12 07:02:00,
2013-09-12 02:22:00,54.0,51.0,-100.00,NW,313,1.0,7.0,90,0.00,,,0.01,0.000000,,2013-09-12 07:22:00,
2013-09-12 02:32:00,54.0,51.0,-100.00,NW,313,1.0,7.0,90,0.00,,,0.01,0.000000,,2013-09-12 07:32:00,
2013-09-12 02:43:00,54.0,51.0,-100.00,NW,313,1.0,7.0,90,0.00,,,0.01,0.000000,,2013-09-12 07:43:00,
2013-09-12 02:52:00,54.0,51.0,-100.00,NW,313,1.0,7.0,90,0.00,,,0.01,0.000000,,2013-09-12 07:52:00,
2013-09-12 03:02:00,54.0,53.0,-100.00,North,356,3.0,6.0,95,0.00,,,0.01,0.000000,,2013-09-12 08:02:00,
2013-09-12 03:22:00,54.0,53.0,-100.00,North,356,3.0,6.0,95,0.00,,,0.01,0.000000,,2013-09-12 08:22:00,
2013-09-12 03:32:00,54.0,53.0,-100.00,North,356,3.0,6.0,95,0.00,,,0.01,0.000000,,2013-09-12 08:32:00,
2013-09-12 03:42:00,54.0,53.0,-100.00,North,356,3.0,6.0,95,0.00,,,0.01,0.000000,,2013-09-12 08:42:00,
2013-09-12 03:52:00,54.0,53.0,-100.00,North,356,3.0,6.0,95,0.00,,,0.01,0.000000,,2013-09-12 08:52:00,
2013-09-12 04:02:00,52.0,51.0,-100.00,NNW,341,2.0,4.0,98,0.00,,,0.01,0.000000,,2013-09-12 09:02:00,
2013-09-12 04:22:00,52.0,51.0,-100.00,NNW,341,2.0,4.0,98,0.00,,,0.01,0.000000,,2013-09-12 09:22:00,
2013-09-12 04:33:00,52.0,51.0,-100.00,NNW,341,2.0,4.0,98,0.00,,,0.01,0.000000,,2013-09-12 09:33:00,
2013-09-12 04:43:00,52.0,51.0,-100.00,NNW,341,2.0,4.0,98,0.00,,,0.01,0.000000,,2013-09-12 09:43:00,
2013-09-12 04:53:00,52.0,51.0,-100.00,NNW,341,2.0,4.0,98,0.00,,,0.01,0.000000,,2013-09-12 09:53:00,
2013-09-12 05:02:00,54.0,53.0,-100.00,NNW,340,4.0,10.0,98,0.00,,,0.00,0.000000,,2013-09-12 10:02:00,
2013-09-12 05:43:00,54.0,53.0,-100.00,NNW,340,4.0,10.0,98,0.00,,,0.00,0.000000,,2013-09-12 10:43:00,
2013-09-12 05:53:00,54.0,53.0,-100.00,NNW,340,4.0,10.0,98,0.00,,,0.00,0.000000,,2013-09-12 10:53:00,
2013-09-12 06:22:00,53.0,52.0,-100.00,NNW,328,2.0,10.0,97,0.00,,,0.00,0.000000,,2013-09-12 11:22:00,
2013-09-12 06:33:00,53.0,52.0,-100.00,NNW,328,2.0,10.0,97,0.00,,,0.00,0.000000,,2013-09-12 11:33:00,
2013-09-12 06:42:00,53.0,52.0,-100.00,NNW,328,2.0,10.0,97,0.00,,,0.00,0.000000,,2013-09-12 11:42:00,
2013-09-12 06:52:00,53.0,52.0,-100.00,NNW,328,2.0,10.0,97,0.00,,,0.00,0.000000,,2013-09-12 11:52:00,
2013-09-12 07:01:00,53.0,52.0,-100.00,NNW,328,2.0,10.0,97,0.00,,,0.00,0.000000,,2013-09-12 12:01:00,
2013-09-12 07:02:00,54.0,53.0,-100.00,NNW,338,4.0,11.0,95,0.00,,,0.00,5.000000,,2013-09-12 12:02:00,
2013-09-12 07:22:00,54.0,53.0,-100.00,NNW,338,4.0,11.0,95,0.00,,,0.00,5.000000,,2013-09-12 12:22:00,
2013-09-12 07:32:00,54.0,53.0,-100.00,NNW,338,4.0,11.0,95,0.00,,,0.00,5.000000,,2013-09-12 12:32:00,
2013-09-12 07:42:00,54.0,53.0,-100.00,NNW,338,4.0,11.0,95,0.00,,,0.00,5.000000,,2013-09-12 12:42:00,
2013-09-12 07:52:00,54.0,53.0,-100.00,NNW,338,4.0,11.0,95,0.00,,,0.00,5.000000,,2013-09-12 12:52:00,
2013-09-12 08:02:00,57.0,54.0,-100.00,North,355,4.0,9.0,90,0.00,,,0.00,75.000000,,2013-09-12 13:02:00,
2013-09-12 08:22:00,57.0,54.0,-100.00,North,355,4.0,9.0,90,0.00,,,0.00,75.000000,,2013-09-12 13:22:00,
2013-09-12 08:32:00,57.0,54.0,-100.00,North,355,4.0,9.0,90,0.00,,,0.00,75.000000,,2013-09-12 13:32:00,
2013-09-12 08:42:00,57.0,54.0,-100.00,North,355,4.0,9.0,90,0.00,,,0.00,75.000000,,2013-09-12 13:42:00,
2013-09-12 08:52:00,57.0,54.0,-100.00,North,355,4.0,9.0,90,0.00,,,0.00,75.000000,,2013-09-12 13:52:00,
2013-09-12 09:02:00,58.0,53.0,-100.00,North,352,6.0,14.0,84,0.00,,,0.00,210.000000,,2013-09-12 14:02:00,
2013-09-12 09:42:00,58.0,53.0,-100.00,North,352,6.0,14.0,84,0.00,,,0.00,210.000000,,2013-09-12 14:42:00,
2013-09-12 09:52:00,58.0,53.0,-100.00,North,352,6.0,14.0,84,0.00,,,0.00,210.000000,,2013-09-12 14:52:00,
2013-09-12 10:02:00,56.0,49.0,-100.00,North,359,7.0,14.0,78,0.00,,,0.00,193.000000,,2013-09-12 15:02:00,
2013-09-12 10:44:00,56.0,49.0,-100.00,North,359,7.0,14.0,78,0.00,,,0.00,193.000000,,2013-09-12 15:44:00,
2013-09-12 10:54:00,56.0,49.0,-100.00,North,359,7.0,14.0,78,0.00,,,0.00,193.000000,,2013-09-12 15:54:00,
2013-09-12 11:02:00,56.0,48.0,-100.00,North,354,8.0,16.0,74,0.00,,,0.00,221.000000,,2013-09-12 16:02:00,
2013-09-12 11:23:00,56.0,48.0,-100.00,North,354,8.0,16.0,74,0.00,,,0.00,221.000000,,2013-09-12 16:23:00,
2013-09-12 11:33:00,56.0,48.0,-100.00,North,354,8.0,16.0,74,0.00,,,0.00,221.000000,,2013-09-12 16:33:00,
2013-09-12 11:43:00,56.0,48.0,-100.00,North,354,8.0,16.0,74,0.00,,,0.00,221.000000,,2013-09-12 16:43:00,
2013-09-12 11:53:00,56.0,48.0,-100.00,North,354,8.0,16.0,74,0.00,,,0.00,221.000000,,2013-09-12 16:53:00,
2013-09-12 12:02:00,57.0,47.0,-100.00,NNW,332,6.0,17.0,69,0.00,,,0.00,271.000000,,2013-09-12 17:02:00,
2013-09-12 12:43:00,57.0,47.0,-100.00,NNW,332,6.0,17.0,69,0.00,,,0.00,271.000000,,2013-09-12 17:43:00,
2013-09-12 12:54:00,57.0,47.0,-100.00,NNW,332,6.0,17.0,69,0.00,,,0.00,271.000000,,2013-09-12 17:54:00,
2013-09-12 13:02:00,60.0,47.0,-100.00,NNW,344,7.0,16.0,61,0.00,,,0.00,515.000000,,2013-09-12 18:02:00,
2013-09-12 13:22:00,60.0,47.0,-100.00,NNW,344,7.0,16.0,61,0.00,,,0.00,515.000000,,2013-09-12 18:22:00,
2013-09-12 13:32:00,60.0,47.0,-100.00,NNW,344,7.0,16.0,61,0.00,,,0.00,515.000000,,2013-09-12 18:32:00,
2013-09-12 13:42:00,60.0,47.0,-100.00,NNW,344,7.0,16.0,61,0.00,,,0.00,515.000000,,2013-09-12 18:42:00,
2013-09-12 13:52:00,60.0,47.0,-100.00,NNW,344,7.0,16.0,61,0.00,,,0.00,515.000000,,2013-09-12 18:52:00,
2013-09-12 14:02:00,60.0,44.0,-100.00,North,0,7.0,19.0,56,0.00,,,0.00,564.000000,,2013-09-12 19:02:00,
2013-09-12 14:42:00,60.0,44.0,-100.00,North,0,7.0,19.0,56,0.00,,,0.00,564.000000,,2013-09-12 19:42:00,
2013-09-12 14:52:00,60.0,44.0,-100.00,North,0,7.0,19.0,56,0.00,,,0.00,564.000000,,2013-09-12 19:52:00,
2013-09-12 15:02:00,59.0,44.0,-100.00,North,350,7.0,22.0,58,0.00,,,0.00,430.000000,,2013-09-12 20:02:00,
2013-09-12 15:42:00,59.0,44.0,-100.00,North,350,7.0,22.0,58,0.00,,,0.00,430.000000,,2013-09-12 20:42:00,
2013-09-12 15:52:00,59.0,44.0,-100.00,North,350,7.0,22.0,58,0.00,,,0.00,430.000000,,2013-09-12 20:52:00,
2013-09-12 16:02:00,55.0,45.0,-100.00,North,10,7.0,18.0,68,0.00,,,0.00,281.000000,,2013-09-12 21:02:00,
2013-09-12 16:22:00,55.0,45.0,-100.00,North,10,7.0,18.0,68,0.00,,,0.00,281.000000,,2013-09-12 21:22:00,
2013-09-12 16:34:00,55.0,45.0,-100.00,North,10,7.0,18.0,68,0.00,,,0.00,281.000000,,2013-09-12 21:34:00,
2013-09-12 16:43:00,55.0,45.0,-100.00,North,10,7.0,18.0,68,0.00,,,0.00,281.000000,,2013-09-12 21:43:00,
2013-09-12 16:54:00,55.0,45.0,-100.00,North,10,7.0,18.0,68,0.00,,,0.00,281.000000,,2013-09-12 21:54:00,
2013-09-12 17:02:00,53.0,43.0,-100.00,North,6,7.0,18.0,68,0.00,,,0.00,130.000000,,2013-09-12 22:02:00,
2013-09-12 17:43:00,53.0,43.0,-100.00,North,6,7.0,18.0,68,0.00,,,0.00,130.000000,,2013-09-12 22:43:00,
2013-09-12 17:54:00,53.0,43.0,-100.00,North,6,7.0,18.0,68,0.00,,,0.00,130.000000,,2013-09-12 22:54:00,
2013-09-12 18:43:00,52.0,44.0,-100.00,North,353,7.0,17.0,75,0.00,,,0.00,97.000000,,2013-09-12 23:43:00,
2013-09-12 18:53:00,52.0,44.0,-100.00,North,353,7.0,17.0,75,0.00,,,0.00,97.000000,,2013-09-12 23:53:00,
2013-09-12 19:01:00,52.0,44.0,-100.00,North,353,7.0,17.0,75,0.00,,,0.00,97.000000,,2013-09-13 00:01:00,
2013-09-12 19:22:00,50.0,44.0,-100.00,North,1,5.0,13.0,80,0.00,,,0.00,36.000000,,2013-09-13 00:22:00,
2013-09-12 19:32:00,50.0,44.0,-100.00,North,1,5.0,13.0,80,0.00,,,0.00,36.000000,,2013-09-13 00:32:00,
2013-09-12 19:42:00,50.0,44.0,-100.00,North,1,5.0,13.0,80,0.00,,,0.00,36.000000,,2013-09-13 00:42:00,
2013-09-12 19:52:00,50.0,44.0,-100.00,North,1,5.0,13.0,80,0.00,,,0.00,36.000000,,2013-09-13 00:52:00,
2013-09-12 20:01:00,50.0,44.0,-100.00,North,1,5.0,13.0,80,0.00,,,0.00,36.000000,,2013-09-13 01:01:00,
2013-09-12 20:02:00,49.0,45.0,-100.00,NNW,348,5.0,12.0,85,0.00,,,0.00,2.000000,,2013-09-13 01:02:00,
2013-09-12 20:42:00,49.0,45.0,-100.00,NNW,348,5.0,12.0,85,0.00,,,0.00,2.000000,,2013-09-13 01:42:00,
2013-09-12 20:53:00,49.0,45.0,-100.00,NNW,348,5.0,12.0,85,0.00,,,0.00,2.000000,,2013-09-13 01:53:00,
2013-09-12 21:02:00,48.0,45.0,-100.00,NNE,16,4.0,12.0,88,0.00,,,0.00,0.000000,,2013-09-13 02:02:00,
2013-09-12 21:43:00,48.0,45.0,-100.00,NNE,16,4.0,12.0,88,0.00,,,0.00,0.000000,,2013-09-13 02:43:00,
2013-09-12 21:53:00,48.0,45.0,-100.00,NNE,16,4.0,12.0,88,0.00,,,0.00,0.000000,,2013-09-13 02:53:00,
2013-09-12 22:02:00,48.0,45.0,-100.00,NNE,25,3.0,10.0,90,0.00,,,0.00,0.000000,,2013-09-13 03:02:00,
2013-09-12 22:22:00,48.0,45.0,-100.00,NNE,25,3.0,10.0,90,0.00,,,0.00,0.000000,,2013-09-13 03:22:00,
2013-09-12 22:34:00,48.0,45.0,-100.00,NNE,25,3.0,10.0,90,0.00,,,0.00,0.000000,,2013-09-13 03:34:00,
2013-09-12 22:45:00,48.0,45.0,-100.00,NNE,25,3.0,10.0,90,0.00,,,0.00,0.000000,,2013-09-13 03:45:00,
2013-09-12 22:55:00,48.0,45.0,-100.00,NNE,25,3.0,10.0,90,0.00,,,0.00,0.000000,,2013-09-13 03:55:00,
2013-09-12 23:02:00,47.0,44.0,-100.00,NNE,25,3.0,7.0,89,0.00,,,0.00,0.000000,,2013-09-13 04:02:00,
2013-09-12 23:44:00,47.0,44.0,-100.00,NNE,25,3.0,7.0,89,0.00,,,0.00,0.000000,,2013-09-13 04:44:00,
2013-09-12 23:54:00,47.0,44.0,-100.00,NNE,25,3.0,7.0,89,0.00,,,0.00,0.000000,,2013-09-13 04:54:00,